• Join FlightAware (Why Join?)
  • Login
  • US Flag 
06:19AM EDT


 

Airport Tracker/Info


-or-


 

Live Flight TrackerFlight Track Log ✈ ASQ6041 ✈ 22-Apr-2013 ✈ KBHM - KORD

Flight Track Log - Related Links

Times and Time Zones

All times are in EDT time to prevent confusion due to time zone crossing. See the ASQ6041 flight status page for this flight to view local times or setup timezone preferences in your user account.

Time Position Orientation Groundspeed Altitude Reporting Facility
EDT Latitude Longitude Course Direction KTS MPH feet Rate Location/Type
07:07AM 33.5683 -86.7489 47° Northeast 151 174 1,100  Level Atlanta Center
07:08AM 33.6047 -86.7025 47° Northeast 175 201 3,000 1,920 Climbing Atlanta Center
07:09AM 33.6475 -86.6564 42° Northeast 189 217 5,200 1,800 Climbing Atlanta Center
07:10AM 33.6989 -86.5981 43° Northeast 220 253 6,700 1,800 Climbing Atlanta Center
07:11AM 33.7544 -86.5347 43° Northeast 251 289 8,900 1,920 Climbing Atlanta Center
07:12AM 33.8142 -86.4692 42° Northeast 268 308 10,600 1,140 Climbing Atlanta Center
07:13AM 33.8825 -86.3933 43° Northeast 299 344 11,200 900 Climbing Atlanta Center
07:14AM 33.9550 -86.3078 44° Northeast 334 384 12,400 1,320 Climbing Atlanta Center
07:15AM 34.0317 -86.2272 41° Northeast 354 407 13,900 1,260 Climbing Atlanta Center
07:16AM 34.1083 -86.1386 44° Northeast 365 420 15,000 1,200 Climbing Atlanta Center
07:17AM 34.1847 -86.0503 44° Northeast 365 420 16,300 1,140 Climbing Atlanta Center
07:18AM 34.2592 -85.9614 45° Northeast 370 426 17,300 840 Climbing Atlanta Center
07:19AM 34.3400 -85.8703 43° Northeast 381 438 18,000 900 Climbing Atlanta Center
07:20AM 34.4292 -85.7739 42° Northeast 381 438 19,100 1,080 Climbing Atlanta Center
07:21AM 34.5117 -85.6772 44° Northeast 386 444 20,200 1,020 Climbing Atlanta Center
07:22AM 34.5922 -85.5831 44° Northeast 391 450 21,200 900 Climbing Atlanta Center
07:23AM 34.6769 -85.4861 43° Northeast 397 457 22,000 1,080 Climbing Atlanta Center
07:24AM 34.7572 -85.3914 44° Northeast 403 464 23,400 960 Climbing Atlanta Center
07:25AM 34.8439 -85.2967 42° Northeast 403 464 24,000 300 Climbing Atlanta Center
07:26AM 34.9283 -85.1914 46° Northeast 414 476 24,000 540 Level Atlanta Center
07:27AM 35.0375 -85.1372 22° Northeast 414 476 25,100 1,140 Climbing Atlanta Center
07:28AM 35.1503 -85.1083 12° North 409 471 26,300 1,320 Climbing Atlanta Center
07:29AM 35.2592 -85.0817 11° North 404 465 27,800 1,500 Climbing Atlanta Center
07:30AM 35.3658 -85.0525 13° North 392 451 29,300 1,320 Climbing Atlanta Center
07:31AM 35.4703 -85.0281 11° North 387 445 30,500 1,080 Climbing Atlanta Center
07:32AM 35.5747 -85.0014 12° North 387 445 31,500 960 Climbing Atlanta Center
07:33AM 35.6814 -84.9744 12° North 387 445 32,500 840 Climbing Atlanta Center
07:34AM 35.7753 -84.9500 12° North 387 445 33,300 720 Climbing Atlanta Center
07:35AM 35.8883 -84.9178 13° North 401 461 34,000 300 Climbing Atlanta Center
07:36AM 36.0011 -84.8908 11° North 413 475 34,000  Level Atlanta Center
07:38AM 36.2472 -84.8325 11° North 454 522 34,000  Level Indianapolis Center
07:39AM 36.3728 -84.8267 North 452 520 34,000  Level Indianapolis Center
07:40AM 36.5233 -84.8192 North 451 519 34,000  Level Indianapolis Center
07:41AM 36.6483 -84.8114 North 449 517 34,000  Level Indianapolis Center
07:42AM 36.7742 -84.8056 North 452 520 34,000  Level Indianapolis Center
07:43AM 36.8975 -84.7989 North 445 512 34,000  Level Indianapolis Center
07:44AM 37.0231 -84.7922 North 450 518 34,000  Level Indianapolis Center
07:45AM 37.1533 -84.7861 North 446 513 34,000  Level Indianapolis Center
07:46AM 37.2781 -84.7803 North 446 513 34,000  Level Indianapolis Center
07:47AM 37.4036 -84.7731 North 449 517 34,000  Level Indianapolis Center
07:48AM 37.5278 -84.7678 North 444 511 34,000  Level Indianapolis Center
07:49AM 37.6528 -84.7625 North 445 512 34,000  Level Indianapolis Center
07:50AM 37.7781 -84.7544 North 448 516 34,000  Level Indianapolis Center
07:51AM 37.9222 -84.7472 North 444 511 34,000  Level Indianapolis Center
07:52AM 38.0444 -84.7408 North 440 506 34,000  Level Indianapolis Center
07:53AM 38.1686 -84.7322 North 444 511 34,000  Level Indianapolis Center
07:54AM 38.2908 -84.7264 North 439 505 34,000  Level Indianapolis Center
07:55AM 38.4122 -84.7194 North 436 502 34,000  Level Indianapolis Center
07:57AM 38.5294 -84.7414 352° North 429 494 34,000  Level Indianapolis Center
07:58AM 38.6397 -84.7953 339° North 423 487 34,000  Level Indianapolis Center
07:59AM 38.7511 -84.8467 340° North 423 487 34,000  Level Indianapolis Center
08:00AM 38.8653 -84.9008 340° North 423 487 34,000 -480 Level Indianapolis Center
08:01AM 38.9778 -84.9533 340° North 429 494 33,100 -960 Descending Indianapolis Center
08:02AM 39.0914 -85.0064 340° North 433 498 32,100 -1,080 Descending Indianapolis Center
08:03AM 39.2178 -85.0664 340° North 437 503 30,900 -1,080 Descending Indianapolis Center
08:04AM 39.3344 -85.1217 340° North 442 509 29,900 -1,020 Descending Indianapolis Center
08:05AM 39.4517 -85.1769 340° North 444 511 28,900 -960 Descending Indianapolis Center
08:06AM 39.5717 -85.2344 340° North 452 520 28,000 -480 Descending Indianapolis Center
08:07AM 39.6878 -85.2897 340° North 443 510 28,000 -300 Level Indianapolis Center
08:08AM 39.8214 -85.3536 340° North 435 501 27,400 -840 Descending Indianapolis Center
08:09AM 39.9400 -85.4097 340° North 448 516 26,400 -720 Descending Indianapolis Center
08:10AM 40.0594 -85.4678 340° North 452 520 26,000 -540 Descending Indianapolis Center
08:11AM 40.1617 -85.5167 340° North 448 516 25,300 -840 Descending Chicago Center
08:12AM 40.2792 -85.5728 340° North 449 517 24,400 -660 Descending Chicago Center
08:13AM 40.4164 -85.6417 339° North 443 510 24,000 -240 Descending Chicago Center
08:14AM 40.5303 -85.6950 340° North 437 503 24,000  Level Chicago Center
08:15AM 40.6153 -85.8061 315° West 440 506 24,000  Level Chicago Center
08:16AM 40.6872 -85.9356 306° West 438 504 24,000  Level Chicago Center
08:17AM 40.7583 -86.0656 306° West 437 503 24,000 -480 Level Chicago Center
08:18AM 40.8292 -86.1961 306° West 439 505 23,100 -960 Descending Chicago Center
08:19AM 40.8994 -86.3253 306° West 434 499 22,100 -540 Descending Chicago Center
08:20AM 40.9828 -86.4781 306° West 428 493 22,000 -360 Descending Chicago Center
08:21AM 41.0514 -86.6067 305° West 429 494 21,400 -1,500 Descending Chicago Center
08:22AM 41.1214 -86.7383 305° West 419 482 19,000 -2,160 Descending Chicago Center
08:23AM 41.1864 -86.8586 306° West 408 470 17,000 -2,220 Descending Chicago Center
08:24AM 41.2483 -86.9739 306° West 390 449 14,500 -2,460 Descending Chicago Center
08:25AM 41.3083 -87.0894 305° West 384 442 12,000 -1,740 Descending Chicago Center
08:26AM 41.3686 -87.1981 307° West 371 427 11,000 -540 Descending Chicago Center
08:27AM 41.4575 -87.3044 318° Northwest 361 415 11,000 -300 Level Chicago Center
08:28AM 41.5294 -87.3881 319° Northwest 351 404 10,400 -540 Descending Chicago Center
08:29AM 41.6019 -87.4678 321° Northwest 344 396 10,000 -240 Descending Chicago Center
08:30AM 41.6742 -87.5483 320° Northwest 343 395 10,000  Level Chicago Center
08:31AM 41.7500 -87.6333 320° Northwest 343 395 10,000  Level Chicago TRACON
08:32AM 41.8167 -87.7000 323° Northwest 319 367 10,000 -660 Level Chicago TRACON
08:33AM 41.8667 -87.7833 309° West 276 318 8,700 -1,380 Descending Chicago TRACON
08:34AM 41.8833 -87.8833 283° West 269 310 7,200 -900 Descending Chicago TRACON
08:35AM 41.8833 -87.9833 270° West 270 311 7,000 -780 Descending Chicago TRACON
08:36AM 41.8833 -88.0833 270° West 252 290 5,700 -1,200 Descending Chicago TRACON
08:37AM 41.8833 -88.1667 270° West 221 254 4,600 -1,080 Descending Chicago TRACON
08:38AM 41.8983 -88.1744 339° North 237 273 4,300 -600 Descending Chicago Center
08:39AM 41.9583 -88.1533 15° North 236 272 3,800 -720 Descending Chicago Center
08:39AM 41.9667 -88.1000 78° East 219 252 3,100 -1,140 Descending Chicago TRACON
08:40AM 41.9667 -88.0167 90° East 189 217 2,000 -960 Descending Chicago TRACON
08:41AM 41.9667 -87.9667 90° East 137 158 1,200 -840 Descending Chicago TRACON
08:44AM 41.9667 -87.9000 83° East  Level FlightAware Approximate